Date,TemperatureHighF,TemperatureAvgF,TemperatureLowF,DewpointHighF,DewpointAvgF,DewpointLowF,HumidityHigh,HumidityAvg,HumidityLow,PressureMaxIn,PressureMinIn,WindSpeedMaxMPH,WindSpeedAvgMPH,GustSpeedMaxMPH,PrecipitationSumIn
2013-3-1,33.6,31.6,27.3,32.0,28.1,22.0,96,87,76,30.13,29.97,10,5,15,0.02
2013-3-2,32.2,28.6,26.2,23.0,20.9,18.0,85,73,63,30.14,30.09,12,4,15,0.00
2013-3-3,32.6,28.3,20.6,21.0,19.5,18.0,88,70,59,30.13,30.08,12,4,17,0.00
2013-3-4,37.7,28.2,17.0,30.0,22.0,15.0,94,79,57,30.19,30.05,9,3,12,0.00
2013-3-5,34.5,31.7,28.2,31.0,29.9,27.0,96,92,85,30.07,29.68,18,9,23,0.04
2013-3-6,34.5,31.3,27.0,31.0,28.9,26.0,96,91,82,30.29,29.78,13,5,20,0.22
2013-3-7,39.6,34.8,31.1,32.0,29.5,26.0,94,81,62,30.43,30.27,8,3,10,0.12
2013-3-8,32.0,26.3,20.0,26.0,22.5,18.0,92,85,77,30.49,30.43,2,0,4,0.00
2013-3-11,51.2,38.9,34.9,50.0,25.1,-99.9,96,80,81,29.81,29.56,22,-109,29,0.32
2013-3-12,38.8,20.9,32.3,32.0,-22.3,-99.9,93,49,66,30.02,29.82,16,-396,24,0.01
2013-3-13,31.8,16.6,27.2,24.0,-31.8,-99.9,86,40,59,30.34,30.01,19,-428,24,0.00
2013-3-14,41.0,23.7,22.6,30.0,-5.6,-99.9,87,56,52,30.38,30.18,10,-228,15,0.00
2013-3-15,48.6,26.2,30.9,43.0,-7.5,-99.9,95,62,72,30.17,29.80,7,-317,13,0.09
2013-3-16,43.8,38.0,33.2,41.0,35.9,29.0,97,92,83,30.09,29.64,11,5,15,0.01
2013-3-17,37.2,32.3,29.7,29.0,26.4,24.0,86,79,69,30.22,30.08,19,9,25,0.00
2013-3-18,39.3,31.3,29.6,39.0,21.9,-99.9,97,86,82,30.09,29.61,18,-70,26,0.14
2013-3-19,36.9,30.2,24.3,29.0,20.2,15.0,82,67,53,30.10,29.81,23,13,35,0.00
2013-3-20,32.4,27.0,22.9,20.0,14.2,-99.9,78,61,49,30.09,30.01,17,-3,24,0.00
2013-3-21,34.7,25.7,17.3,19.0,16.2,13.0,85,69,47,30.05,30.01,16,5,20,0.00
2013-3-22,42.0,29.7,17.6,24.0,20.0,15.0,93,70,41,30.09,30.02,12,2,14,0.00
2013-3-23,46.6,34.7,25.0,29.0,24.8,20.0,85,69,48,30.13,29.97,10,3,15,0.00
2013-3-24,37.7,32.1,29.6,30.0,26.9,25.0,95,81,69,29.99,29.54,30,13,39,0.00
2013-3-25,36.3,32.1,28.8,34.0,30.1,28.0,96,92,79,29.99,29.54,13,6,17,0.28
2013-3-26,40.3,35.4,31.6,32.0,29.8,26.0,92,80,60,30.24,29.99,14,5,18,0.00
2013-3-27,40.8,34.2,27.7,31.0,28.4,25.0,90,80,67,30.33,30.24,9,4,17,0.00
2013-3-28,45.7,35.9,25.7,33.0,28.5,23.0,90,75,58,30.38,30.31,10,3,12,0.00
2013-3-29,52.1,39.1,28.2,36.0,31.1,27.0,95,76,43,30.35,30.24,10,2,13,0.00
2013-3-30,55.1,42.3,27.8,39.0,32.9,26.0,95,72,47,30.27,29.95,9,2,14,0.00
2013-3-31,58.9,48.3,39.7,46.0,41.0,35.0,95,77,52,29.94,29.72,20,5,34,0.00